Kansas City, MO

6:48 PM CST on December 05, 2016 (GMT -0600)
Kansas City Downtown

Weather History for KMKC - February, 2014

Change the Weather History Date:

Thursday, February 20, 2014

  Actual Average Record
Temperature  
Mean Temperature 42 °F -  
Max Temperature 46 °F 44 °F 73 °F (2016)
Min Temperature 36 °F 28 °F 7 °F (2008)
Degree Days  
Heating Degree Days 24    
Moisture  
Dew Point 35 °F    
Average Humidity 77    
Maximum Humidity 90    
Minimum Humidity 47    
Precipitation  
Precipitation 0.04 in - - ()
Sea Level Pressure  
Sea Level Pressure 29.51 in    
Wind  
Wind Speed 10 mph (NNW)    
Max Wind Speed 23 mph    
Max Gust Speed 40 mph    
Visibility 9 miles    
Events Rain , Snow , Thunderstorm    
Averages and records for this station are not official NWS values.
T = Trace of Precipitation, MM = Missing Value Source: NWS Daily Summary

Daily Weather History Graph

Daily Weather History Graph

Search for Another Location

Airport or City:

Trip Planner

Search our weather history database for the weather conditions in past years. The results will help you decide how hot, cold, wet, or windy it might be!

Date:

Astronomy

Feb. 20, 2014 Rise Set
Actual Time 7:03 AM CST 6:01 PM CST
Civil Twilight 6:36 AM CST 6:28 PM CST
Nautical Twilight 6:05 AM CST 6:59 PM CST
Astronomical Twilight 5:34 AM CST 7:30 PM CST
Moon 11:53 PM CST (2/20) 9:49 AM CST (2/20)
Length of Visible Light 11h 52m
Length of Day
10h 57m
Waning Gibbous, 70% of the Moon is Illuminated
Feb 20
Waning Gibbous
Feb 22
Last Quarter
Mar 1
New
Mar 8
First Quarter
Mar 16
Full

Hourly Weather History & Observations

Time (CST) Temp. Windchill Dew Point Humidity Pressure Visibility Wind Dir Wind Speed Gust Speed Precip Events Conditions
12:54 AM 43.0 °F 38.8 °F 39.0 °F 86% 29.53 in 10.0 mi NNE 6.9 mph - 0.00 in   Overcast
1:54 AM 43.0 °F 40.3 °F 39.0 °F 86% 29.51 in 10.0 mi NE 4.6 mph - 0.01 in   Overcast
2:54 AM 44.1 °F 39.5 °F 39.0 °F 82% 29.48 in 10.0 mi ENE 8.1 mph - 0.00 in   Overcast
3:54 AM 44.1 °F 40.1 °F 39.0 °F 82% 29.43 in 10.0 mi East 6.9 mph - N/A   Overcast
4:37 AM 44.1 °F 40.1 °F 39.0 °F 82% 29.37 in 10.0 mi ENE 6.9 mph - N/A Thunderstorm Overcast
4:54 AM 44.1 °F 40.1 °F 39.9 °F 85% 29.37 in 10.0 mi ENE 6.9 mph - N/A Thunderstorm Overcast
5:13 AM 45.0 °F 42.6 °F 41.0 °F 86% 29.38 in 10.0 mi NNE 4.6 mph - N/A   Overcast
5:40 AM 45.0 °F 41.2 °F 41.0 °F 86% 29.37 in 9.0 mi ENE 6.9 mph - 0.00 in Rain Light Rain
5:54 AM 45.0 °F 41.8 °F 42.1 °F 90% 29.37 in 10.0 mi East 5.8 mph - 0.00 in Rain Light Rain
6:38 AM 46.9 °F - 43.0 °F 86% 29.39 in 10.0 mi NW 10.4 mph - 0.00 in   Overcast
6:46 AM 45.0 °F 39.7 °F 42.1 °F 90% 29.37 in 10.0 mi North 10.4 mph 21.9 mph 0.00 in   Overcast
6:54 AM 45.0 °F 40.1 °F 41.0 °F 86% 29.39 in 10.0 mi NNW 9.2 mph - 0.00 in   Overcast
7:24 AM 43.0 °F 38.2 °F 39.9 °F 89% 29.38 in 10.0 mi North 8.1 mph - N/A   Overcast
7:54 AM 43.0 °F 37.7 °F 39.9 °F 89% 29.35 in 10.0 mi ENE 9.2 mph - N/A   Overcast
8:02 AM 44.1 °F 39.0 °F 39.9 °F 85% 29.35 in 10.0 mi East 9.2 mph - N/A   Overcast
8:54 AM 44.1 °F 40.8 °F 41.0 °F 89% 29.31 in 7.0 mi East 5.8 mph - N/A   Overcast
9:29 AM 44.1 °F 39.5 °F 41.0 °F 89% 29.27 in 8.0 mi East 8.1 mph - N/A   Overcast
9:54 AM 45.0 °F 41.2 °F 42.1 °F 90% 29.26 in 8.0 mi ENE 6.9 mph - 0.00 in Thunderstorm Overcast
10:20 AM 43.0 °F 36.0 °F 39.0 °F 86% 29.30 in 10.0 mi WNW 13.8 mph 25.3 mph 0.00 in   Overcast
10:54 AM 42.1 °F 34.5 °F 37.0 °F 82% 29.33 in 10.0 mi NW 15.0 mph 27.6 mph 0.00 in   Overcast
11:06 AM 41.0 °F 33.1 °F 37.0 °F 86% 29.36 in 10.0 mi WNW 15.0 mph 24.2 mph N/A   Overcast
11:54 AM 37.9 °F 27.9 °F 34.0 °F 86% 29.42 in 5.0 mi NW 19.6 mph 29.9 mph 0.01 in Snow Light Snow
12:47 PM 37.0 °F 27.4 °F 33.1 °F 86% 29.48 in 5.0 mi WNW 17.3 mph 31.1 mph 0.01 in Snow Light Snow
12:54 PM 37.0 °F 27.0 °F 32.0 °F 82% 29.49 in 5.0 mi WNW 18.4 mph 27.6 mph 0.01 in Snow Light Snow
1:54 PM 37.0 °F 26.2 °F 32.0 °F 82% 29.57 in 9.0 mi WNW 21.9 mph 32.2 mph 0.01 in Snow Light Snow
2:54 PM 39.9 °F 30.2 °F 32.0 °F 73% 29.65 in 10.0 mi WNW 20.7 mph 31.1 mph 0.00 in Rain Light Rain
3:11 PM 39.9 °F 29.7 °F 30.9 °F 70% 29.67 in 10.0 mi WNW 23.0 mph 40.3 mph 0.00 in Rain Light Rain
3:50 PM 41.0 °F 33.5 °F 32.0 °F 70% 29.72 in 10.0 mi West 13.8 mph 26.5 mph 0.00 in   Overcast
3:54 PM 41.0 °F 32.8 °F 32.0 °F 70% 29.73 in 10.0 mi West 16.1 mph 23.0 mph 0.00 in   Overcast
4:54 PM 43.0 °F 36.0 °F 30.9 °F 62% 29.73 in 10.0 mi West 13.8 mph - N/A   Clear
5:54 PM 42.1 °F 36.6 °F 32.0 °F 67% 29.74 in 10.0 mi SW 9.2 mph - N/A   Clear
6:54 PM 44.1 °F 37.4 °F 25.0 °F 47% 29.76 in 10.0 mi West 13.8 mph 21.9 mph N/A   Overcast
7:54 PM 43.0 °F 36.8 °F 24.1 °F 47% 29.76 in 10.0 mi West 11.5 mph 23.0 mph N/A   Partly Cloudy
8:54 PM 41.0 °F 33.1 °F 21.9 °F 47% 29.79 in 10.0 mi WNW 15.0 mph 33.4 mph 0.00 in Rain Light Rain
9:54 PM 37.9 °F 30.5 °F 19.9 °F 48% 29.81 in 10.0 mi WNW 11.5 mph 25.3 mph 0.00 in   Clear
10:54 PM 37.0 °F 28.9 °F 19.9 °F 50% 29.81 in 10.0 mi West 12.7 mph 21.9 mph N/A   Clear
11:54 PM 36.0 °F 27.5 °F 18.0 °F 48% 29.82 in 10.0 mi West 12.7 mph 29.9 mph 0.00 in   Clear